User: anonymous   Login
Location: Chiroubles
(46.1812°N, 4.6660°E)
Time: 11:42:04
(UTC+00:00)
Language:

A-11 Canister half - Orbit

View from above orbital plane
View from above orbital plane
View from above satellite
View from above satellite

Ground track
Ground track

The orbit data is extracted from the following two-line orbital elements,

1    53U 60009E   20334.68651477 +.00000001 +00000-0 +83955-3 0  9993
2    53 047.2755 109.4349 0099286 208.4058 151.1294 12.17249165688699
Epoch (UTC): 29 November 2020 16:28:34
Eccentricity: 0.0099286
inclination: 47.2755°
perigee height: 1525 km
apogee height: 1684 km
right ascension of ascending node: 109.4349°
argument of perigee: 208.4058°
revolutions per day: 12.17249165
mean anomaly at epoch: 151.1294°
orbit number at epoch: 68869

The dashed part of the orbit path shows where the satellite is in the earth's shadow,  

DLR